Other Public Products
Issued by NWS Charleston, SC

Current Version | Previous Version | Text Only | Print | Product List | Glossary Off
Versions: 1 2 3 4 5 6 7 8 9 10 11 12 13 14 15 16 17 18 19 20 21 22 23 24 25 26 27 28 29 30 31 32 33 34 35 36 37 38 39 40 41 42 43 44 45 46 47 48 49 50

000
FPUS82 KCHS 230627
OPUCHS

TEST...KCHS/KSAV Gateway Observations...TEST
National Weather Service Charleston SC
100 AM EST THU NOV 23 2017

NOTE: "fair" indicates few or no clouds below 12,000 feet with no
significant weather and/or obstructions to visibility.

SCZ050-WAZ558-NCZ071-TXZ119-213-PAZ071-DCZ001-FLZ074-172-MI076-
NYZ176-178-MAZ016-IL014-TNZ027-NJZ106-GAZ044-MD014-230700-

...Gateway Observations for Charleston International...

CITY           SKY/WX    TMP DP  RH WIND       PRES   REMARKS
Chas Airport   CLOUDY    54  43  66 NE9       30.07F
6HR MIN TEMP:  53; 6HR MAX TEMP:  58;

Seattle        RAIN      60  58  92 S10       29.85F FOG
6HR MIN TEMP:  60; 6HR MAX TEMP:  66; 6HR PCP:  0.11;

Charlotte      CLOUDY    44  28  53 NE10      30.15S
6HR MIN TEMP:  44; 6HR MAX TEMP:  55;

Dallas DFW     CLEAR     42  28  57 SW3       30.24S
6HR MIN TEMP:  42; 6HR MAX TEMP:  51;

Dallas Love    PTCLDY    40  33  76 CALM      30.26S
6HR MIN TEMP:  40; 6HR MAX TEMP:  51;

Philladelphia  CLEAR     35  21  56 NW6       30.13F WCI  30
6HR MIN TEMP:  35; 6HR MAX TEMP:  44;

Wash National  PTCLDY    36  24  62 NW7       30.18F WCI  30
6HR MIN TEMP:  36; 6HR MAX TEMP:  44;

Baltimore      PTCLDY    32  24  72 CALM      30.16F
6HR MIN TEMP:  31; 6HR MAX TEMP:  42;

Miami          PTCLDY    75  70  84 SE3       29.93F
6HR MIN TEMP:  73; 6HR MAX TEMP:  79;

Detroit        CLOUDY    28  21  75 SW7       30.20S WCI  21
6HR MIN TEMP:  26; 6HR MAX TEMP:  31;

Newark         PTCLDY    34  20  56 NW12      30.10F WCI  25
6HR MIN TEMP:  34; 6HR MAX TEMP:  42;

Laguardia      PTCLDY    36  21  54 NW16      30.08F WCI  26
6HR MIN TEMP:  36; 6HR MAX TEMP:  43;

J F K          PTCLDY    34  20  56 NW16G25   30.08F WCI  24
6HR MIN TEMP:  34; 6HR MAX TEMP:  42;

Boston Logan   CLEAR     37  23  56 W20G28    29.95R WCI  27
6HR MIN TEMP:  37; 6HR MAX TEMP:  42;

Ft. Lauderdale PTCLDY    75  72  90 S3        29.92F
6HR MIN TEMP:  74; 6HR MAX TEMP:  78; 6HR PCP:  0.02;

Chicago O`Hare CLOUDY    32  17  54 SW9       30.16F WCI  24
6HR MIN TEMP:  31; 6HR MAX TEMP:  32;

Chicago Midway CLOUDY    32  18  56 SW10      30.18F WCI  24
6HR MIN TEMP:  31; 6HR MAX TEMP:  32;

Houston Bush   CLEAR     50  37  61 N7        30.23F
6HR MIN TEMP:  49; 6HR MAX TEMP:  60;

Houston Hobby  CLEAR     52  39  61 N10       30.23F
6HR MIN TEMP:  52; 6HR MAX TEMP:  62;

Nashville      CLEAR     31  24  75 S3        30.20F
6HR MIN TEMP:  30; 6HR MAX TEMP:  42;

Atlanta        CLOUDY    43  32  65 N8        30.08F
6HR MIN TEMP:  43; 6HR MAX TEMP:  53;


$$

GAZ044-118-TXZ119-213-NCZ071-DCZ001-MDZ014-506-PAZ021-071-NJZ106-
NYZ176-178-MAZ106-OHZ011-021-055-MIZ076-KYZ091-ILZ014-INZ047-
MNZ060-ONZ431-230700-

...Gateway Observations for Savannah International...

CITY           SKY/WX    TMP DP  RH WIND       PRES   REMARKS
Savannah Arpt  CLOUDY    58  55  90 NE10      30.05F
6HR MIN TEMP:  57; 6HR MAX TEMP:  60;

Atlanta        CLOUDY    43  32  65 N8        30.08F
6HR MIN TEMP:  43; 6HR MAX TEMP:  53;

Charlotte      CLOUDY    44  28  53 NE10      30.15S
6HR MIN TEMP:  44; 6HR MAX TEMP:  55;

Dallas DFW     CLEAR     42  28  57 SW3       30.24S
6HR MIN TEMP:  42; 6HR MAX TEMP:  51;

Houston Bush   CLEAR     50  37  61 N7        30.23F
6HR MIN TEMP:  49; 6HR MAX TEMP:  60;

Wash National  PTCLDY    36  24  62 NW7       30.18F WCI  30
6HR MIN TEMP:  36; 6HR MAX TEMP:  44;

Wash Dulles    CLEAR     33  23  66 N6        30.17F WCI  28
6HR MIN TEMP:  32; 6HR MAX TEMP:  40;

Baltimore      PTCLDY    32  24  72 CALM      30.16F
6HR MIN TEMP:  31; 6HR MAX TEMP:  42;

Philadelphia   CLEAR     35  21  56 NW6       30.13F WCI  30
6HR MIN TEMP:  35; 6HR MAX TEMP:  44;

Newark         PTCLDY    34  20  56 NW12      30.10F WCI  25
6HR MIN TEMP:  34; 6HR MAX TEMP:  42;

Laguardia      PTCLDY    36  21  54 NW16      30.08F WCI  26
6HR MIN TEMP:  36; 6HR MAX TEMP:  43;

J F K          PTCLDY    34  20  56 NW16G25   30.08F WCI  24
6HR MIN TEMP:  34; 6HR MAX TEMP:  42;

Boston         CLEAR     37  23  56 W20G28    29.95R WCI  27
6HR MIN TEMP:  37; 6HR MAX TEMP:  42;

Pittsburg      CLOUDY    28  21  75 W3        30.17F
6HR MIN TEMP:  28; 6HR MAX TEMP:  32;

Akron          MOCLDY    28  18  66 W3        30.20F
6HR MIN TEMP:  27; 6HR MAX TEMP:  31;

Cleveland      CLOUDY    29  18  63 S7        30.23F WCI  22
6HR MIN TEMP:  29; 6HR MAX TEMP:  32;

Cincinnati     CLOUDY    28  23  81 CALM      30.21F
6HR MIN TEMP:  27; 6HR MAX TEMP:  34;

Columbus       CLOUDY    23  20  89 CALM      30.21F
Detroit        CLOUDY    28  21  75 SW7       30.20S WCI  21
6HR MIN TEMP:  26; 6HR MAX TEMP:  31;

Chicago O`Hare CLOUDY    32  17  54 SW9       30.16F WCI  24
6HR MIN TEMP:  31; 6HR MAX TEMP:  32;

Minneapolis    PTCLDY    30  18  60 SE6       29.94F WCI  24
6HR MIN TEMP:  30; 6HR MAX TEMP:  33;

Indianapolis   MOCLDY    30  23  75 CALM      30.22F
6HR MIN TEMP:  29; 6HR MAX TEMP:  32;

Toronto Canada MOCLDY    30  19  64 SW12      30.15F WCI  21

$$




USA.gov is the U.S. government's official web portal to all federal, state and local government web resources and services.